Starling 3

operational
NORAD ID: 57389 Int'l Des: 2023-100 Owner: ARC Country: US
LEOCIRCULARRETROGRADE

Über Starling 3

Beschreibung wird geladen...

Live-Position

3D-Globus wird geladen...

Nächste Überflüge

Höhenverlauf

Altitude vs Time

uPlot chart will show altitude changes over time

Zweizeiliger Elementsatz

1 57389U 23100D 26062.45653014 .00008823 00000-0 53277-3 0 9990
2 57389 99.5090 57.5916 0006719 92.2053 267.9940 15.11025699144097
Epoch: 3. März 2026 • Age: 39 hours

Aktueller Status

Höhe 538.6 km
Geschwindigkeit 7.60 km/s
Subsatellitenpunkt 56.74°N, 126.32°W
Startdatum 18. Juli 2023
Alter 2.6 years
Typ other

Technische Details

Klassifizierung Payload
Masse 12.00 kg
Trockenmasse 12.00 kg
Gesamtmasse 12.00 kg
Länge 0.30 m
Durchmesser 0.20 m
Spannweite 0.50 m
Form Box + 2 pan
Hersteller BLCAN
Bus-Typ Cubesat 6U
Phasenstatus In Orbit
Besitzer/Staat ARC/US

Große Konstellationen

Loading constellations...